Zurück zum Katalog

CZ-3B DEB

AktivGTO
NORAD 40179·DEBRIS·🇨🇳 China

Gestartet Dec 19, 2011 von Xichang Satellite Launch Center

Loading…

TLE

AlterndSource: Space-Track

Epoche: Sep 14, 2026, 11:44 UTC

1 40179U 11077C   26257.48917057  .00000029  00000-0  30509-2 0  9990
2 40179  25.7285 274.0769 7440086 189.2748 138.7574  1.91936144 89825

Verfolge CZ-3B DEB in Echtzeit mit AllMySat

Download on the App Store